Powrót do katalogu

ATLAS 5 CENTAUR DEB

AktywnyHEO
NORAD 44659·DEBRIS·🇺🇸 United States

Wystrzelony Oct 17, 2018 z Cape Canaveral Space Force Station

Loading…

Następne Przeloty (najbliższe 24 godziny)

TLE

Starzejące sięSource: Space-Track

Epoka: Aug 27, 2026, 14:45 UTC

1 44659U 18079V   26239.61466514 -.00000144  00000-0  00000+0 0  9997
2 44659  13.5349  11.8249 4539563   2.7203 358.9554  1.90593694 50728

Śledź ATLAS 5 CENTAUR DEB w czasie rzeczywistym z AllMySat

Download on the App Store